Change the Weather History Date:

Tuesday, November 22, 2011

  Actual Average Record
Temperature  
Mean Temperature 57 °F -  
Max Temperature 61 °F 61 °F 73 °F (2014)
Min Temperature 53 °F 47 °F 32 °F (1999)
Degree Days  
Heating Degree Days 8    
Growing Degree Days 7 (Base 50)    
Moisture  
Dew Point 45 °F    
Average Humidity 64    
Maximum Humidity 82    
Minimum Humidity 34    
Precipitation  
Precipitation 0.00 in 0.13 in - ()
Sea Level Pressure  
Sea Level Pressure 29.98 in    
Wind  
Wind Speed 9 mph ()    
Max Wind Speed 22 mph    
Max Gust Speed 32 mph    
Visibility 6.7 miles    
Events      
Averages and records for this station are not official NWS values.
T = Trace of Precipitation, MM = Missing Value Source: Averaged Metar Reports

Daily Weather History Graph

Daily Weather History Graph

Search for Another Location

Airport or City:

Trip Planner

Search our weather history database for the weather conditions in past years. The results will help you decide how hot, cold, wet, or windy it might be!

Date:

Astronomy

Nov. 22, 2011 Rise Set
Actual Time 8:02 AM CET 6:05 PM CET
Civil Twilight 7:34 AM CET 6:33 PM CET
Nautical Twilight 7:03 AM CET 7:04 PM CET
Astronomical Twilight 6:32 AM CET 7:35 PM CET
Moon 4:39 AM CET (11/22) 3:52 PM CET (11/22)
Length of Visible Light 10h 58m
Length of Day
10h 02m
Waning Crescent, 11% of the Moon is Illuminated
Nov 22
Waning Crescent
Nov 25
New
Dec 2
First Quarter
Dec 10
Full
Dec 18
Last Quarter

Hourly Weather History & Observations

Time (CET) Temp. Dew Point Humidity Pressure Visibility Wind Dir Wind Speed Gust Speed Precip Events Conditions
12:00 AM 59.0 °F 50.0 °F 72% 29.92 in 6.2 mi WNW 5.8 mph - N/A   Scattered Clouds
12:30 AM 59.0 °F 51.8 °F 77% 29.92 in 6.2 mi WNW 5.8 mph - N/A   Scattered Clouds
1:00 AM 59 °F 51 °F 69% 29.96 in 9 mi NW 4.6 mph - -   Partly Cloudy
1:00 AM 59.0 °F 51.8 °F 77% 29.95 in 6.2 mi NW 4.6 mph - N/A   Scattered Clouds
1:30 AM 57.2 °F 50.0 °F 77% 29.92 in 6.2 mi NW 6.9 mph - N/A   Scattered Clouds
2:00 AM 59.0 °F 50.0 °F 72% 29.92 in 6.2 mi NW 8.1 mph - N/A   Scattered Clouds
2:30 AM 59.0 °F 48.2 °F 67% 29.92 in 6.2 mi NNW 8.1 mph - N/A   Scattered Clouds
3:00 AM 57.2 °F 48.2 °F 72% 29.95 in 6.2 mi NW 5.8 mph - N/A   Scattered Clouds
3:30 AM 57.2 °F 48.2 °F 72% 29.95 in 6.2 mi NW 8.1 mph - N/A   Scattered Clouds
4:00 AM 57.2 °F 48.2 °F 72% 29.92 in 6.2 mi NW 9.2 mph - N/A   Partly Cloudy
4:30 AM 57.2 °F 48.2 °F 72% 29.92 in 6.2 mi NW 3.5 mph - N/A   Partly Cloudy
5:00 AM 57.2 °F 48.2 °F 72% 29.92 in 6.2 mi NNW 8.1 mph - N/A   Partly Cloudy
5:30 AM 57.2 °F 50.0 °F 77% 29.92 in 6.2 mi NW 6.9 mph - N/A   Partly Cloudy
6:00 AM 57.2 °F 48.2 °F 72% 29.92 in 6.2 mi WNW 3.5 mph - N/A   Scattered Clouds
6:30 AM 55.4 °F 48.2 °F 77% 29.92 in 6.2 mi WNW 6.9 mph - N/A   Scattered Clouds
7:00 AM 56 °F 44 °F 55% 29.95 in 12 mi WNW 9.2 mph - -   Scattered Clouds
7:00 AM 55.4 °F 48.2 °F 77% 29.92 in 6.2 mi WNW 9.2 mph - N/A   Partly Cloudy
7:30 AM 57.2 °F 48.2 °F 72% 29.95 in 6.2 mi WNW 10.4 mph - N/A   Scattered Clouds
8:00 AM 55.4 °F 50.0 °F 82% 29.95 in 6.2 mi WNW 12.7 mph - N/A   Mostly Cloudy
8:30 AM 57.2 °F 46.4 °F 67% 29.98 in 6.2 mi WNW 15.0 mph - N/A   Mostly Cloudy
9:00 AM 57.2 °F 46.4 °F 67% 29.98 in 6.2 mi NW 11.5 mph - N/A   Scattered Clouds
9:30 AM 57.2 °F 46.4 °F 67% 29.98 in 6.2 mi NW 12.7 mph - N/A   Scattered Clouds
10:00 AM 59.0 °F 44.6 °F 59% 30.01 in 6.2 mi WNW 16.1 mph 29.9 mph N/A   Scattered Clouds
10:30 AM 59.0 °F 44.6 °F 59% 30.01 in 6.2 mi WNW 16.1 mph - N/A   Scattered Clouds
11:00 AM 59.0 °F 44.6 °F 59% 30.01 in 6.2 mi WNW 17.3 mph 29.9 mph N/A   Scattered Clouds
11:30 AM 59.0 °F 44.6 °F 59% 30.01 in 6.2 mi WNW 21.9 mph - N/A   Partly Cloudy
12:00 PM 59.0 °F 42.8 °F 55% 30.01 in 6.2 mi NW 15.0 mph - N/A   Partly Cloudy
12:20 PM 59.0 °F 42.8 °F 55% 30.01 in 6.2 mi NW 16.1 mph 27.6 mph N/A   Partly Cloudy
12:30 PM 60.8 °F 42.8 °F 52% 30.01 in 6.2 mi WNW 17.3 mph - N/A   Partly Cloudy
12:33 PM 60.8 °F 42.8 °F 52% 30.01 in 6.2 mi WNW 19.6 mph 31.1 mph N/A   Partly Cloudy
1:00 PM 61 °F 40 °F 34% 30.01 in 25 mi NW 18.4 mph - -   Scattered Clouds
1:00 PM 60.8 °F 41.0 °F 48% 30.01 in 6.2 mi NW 18.4 mph 32.2 mph N/A   Partly Cloudy
1:30 PM 60.8 °F 42.8 °F 52% 29.98 in 6.2 mi NW 15.0 mph 27.6 mph N/A   Partly Cloudy
2:00 PM 60.8 °F 41.0 °F 48% 29.98 in 6.2 mi WNW 18.4 mph 31.1 mph N/A   Partly Cloudy
2:30 PM 60.8 °F 41.0 °F 48% 29.98 in 6.2 mi WNW 19.6 mph 31.1 mph N/A   Partly Cloudy
3:00 PM 59.0 °F 41.0 °F 51% 29.98 in 6.2 mi WNW 18.4 mph - N/A   Partly Cloudy
3:30 PM 60.8 °F 41.0 °F 48% 29.98 in 6.2 mi WNW 19.6 mph - N/A   Partly Cloudy
4:00 PM 59.0 °F 42.8 °F 55% 29.98 in 6.2 mi NW 13.8 mph 26.5 mph N/A   Scattered Clouds
4:30 PM 59.0 °F 41.0 °F 51% 29.98 in 6.2 mi WNW 16.1 mph 27.6 mph N/A   Scattered Clouds
5:00 PM 59.0 °F 42.8 °F 55% 29.98 in 6.2 mi WNW 15.0 mph - N/A   Scattered Clouds
5:30 PM 57.2 °F 41.0 °F 55% 29.98 in 6.2 mi WNW 13.8 mph - N/A   Scattered Clouds
6:00 PM 57.2 °F 42.8 °F 59% 30.01 in 6.2 mi WNW 15.0 mph - N/A   Scattered Clouds
6:30 PM 55.4 °F 44.6 °F 67% 30.01 in 6.2 mi WNW 12.7 mph - N/A   Scattered Clouds
7:00 PM 56 °F 44 °F 53% 30.04 in 19 mi WNW 8.1 mph - -   Scattered Clouds
7:00 PM 55.4 °F 44.6 °F 67% 30.04 in 6.2 mi WNW 8.1 mph - N/A   Partly Cloudy
7:30 PM 53.6 °F 44.6 °F 72% 30.04 in 6.2 mi NW 3.5 mph - N/A   Partly Cloudy
8:30 PM 53.6 °F 44.6 °F 72% 30.04 in 6.2 mi West 9.2 mph - N/A   Partly Cloudy
9:00 PM 53.6 °F 44.6 °F 72% 30.04 in 6.2 mi WNW 6.9 mph - N/A   Partly Cloudy
9:30 PM 53.6 °F 44.6 °F 72% 30.04 in - West 6.9 mph - N/A   Clear
10:00 PM 53.6 °F 42.8 °F 67% 30.04 in - West 9.2 mph - N/A   Clear
10:30 PM 53.6 °F 42.8 °F 67% 30.06 in - West 8.1 mph - N/A   Clear
11:00 PM 53.6 °F 42.8 °F 67% 30.06 in - West 11.5 mph - N/A   Clear
11:30 PM 53.6 °F 42.8 °F 67% 30.06 in - WNW 12.7 mph - N/A   Clear